Location: *
(37.5724°S, 58.0067°E)
Time: 11:29:16
(UTC+00:00)

Cosmos 2242 Rocket - Pass Details

Date: 26 September 2020
Orbit: 619 x 650 km, 82.5° (Epoch: 30 October)

Event Time Altitude Azimuth Distance (km) Brightness Sun altitude
Rises 23:21:39 0° 182° (S) 2,963 7.4 -28.9°
Reaches altitude 10° 23:23:59 10° 176° (S) 2,042 6.6 -28.5°
Maximum altitude 23:28:23 49° 100° (E) 821 4.4 -27.7°
Enters shadow 23:29:33 39° 56° (NE) 956 4.6 -27.5°
